Weather History for Casper, WY

Change the Weather History Date:

Monday, April 29, 2013

  Actual Average Record
Temperature  
Mean Temperature 51 °F 47 °F  
Max Temperature 69 °F 61 °F 83 °F (1992)
Min Temperature 32 °F 32 °F 16 °F (1990)
Degree Days  
Heating Degree Days 14 18  
Month to date heating degree days 823 651  
Since 1 July heating degree days 6834 7024  
Cooling Degree Days 0 0  
Month to date cooling degree days 0 0  
Year to date cooling degree days 0 0  
Growing Degree Days 4 (Base 50)    
Moisture  
Dew Point 26 °F    
Average Humidity 53    
Maximum Humidity 89    
Minimum Humidity 16    
Precipitation  
Precipitation 0.00 in 0.05 in 0.62 in (1997)
Month to date precipitation 2.42 1.23  
Year to date precipitation 4.04 3.13  
Snow  
Snow 0.00 in 0.30 in - ()
Month to date snowfall 37.8 11.3  
Since 1 July snowfall 81.0 71.6  
Snow Depth 0.00 in    
Sea Level Pressure  
Sea Level Pressure 29.60 in    
Wind  
Wind Speed 21 mph (WSW)    
Max Wind Speed 43 mph    
Max Gust Speed 52 mph    
Visibility 10 miles    
Events      
T = Trace of Precipitation, MM = Missing Value Source: NWS Daily Summary

Daily Weather History Graph

Daily Weather History Graph

Search for Another Location

Airport:

Trip Planner

Search our weather history database for the weather conditions in past years. The results will help you decide how hot, cold, wet, or windy it might be!

Date:

Astronomy

Apr. 29, 2013 Rise Set
Actual Time 6:02 AM MDT 8:04 PM MDT
Civil Twilight 5:31 AM MDT 8:35 PM MDT
Nautical Twilight 4:53 AM MDT 9:13 PM MDT
Astronomical Twilight 4:12 AM MDT 9:55 PM MDT
Moon No Moon Rise 9:23 AM MDT (4/29)
Length of Visible Light 15h 04m
Length of Day
14h 02m
Waning Gibbous, 79% of the Moon is Illuminated
Apr 29
Waning Gibbous
May 2
Last Quarter
May 9
New
May 17
First Quarter
May 24
Full

Hourly Weather History & Observations

Time (MDT) Temp. Windchill Dew Point Humidity Pressure Visibility Wind Dir Wind Speed Gust Speed Precip Events Conditions
12:53 AM 42.1 °F 38.4 °F 35.1 °F 76% 29.81 in 10.0 mi ESE 5.8 mph - N/A   Clear
1:53 AM 33.1 °F - 28.9 °F 85% 29.81 in 10.0 mi Calm Calm - N/A   Clear
2:53 AM 36.0 °F 29.0 °F 32.0 °F 86% 29.77 in 10.0 mi WSW 9.2 mph - N/A   Clear
3:53 AM 34.0 °F 28.0 °F 30.0 °F 85% 29.75 in 10.0 mi West 6.9 mph - N/A   Clear
4:53 AM 37.9 °F 33.5 °F 30.9 °F 76% 29.70 in 10.0 mi SSW 5.8 mph - N/A   Clear
5:53 AM 39.9 °F 33.4 °F 30.0 °F 68% 29.71 in 10.0 mi SW 10.4 mph - N/A   Clear
6:53 AM 45.0 °F 37.9 °F 28.0 °F 52% 29.69 in 10.0 mi SW 16.1 mph - N/A   Clear
7:53 AM 48.0 °F - 23.0 °F 37% 29.70 in 10.0 mi SW 23.0 mph 29.9 mph N/A   Clear
8:53 AM 53.1 °F - 21.9 °F 30% 29.67 in 10.0 mi SSW 20.7 mph - N/A   Clear
9:53 AM 57.9 °F - 21.0 °F 24% 29.62 in 10.0 mi SSW 23.0 mph 31.1 mph N/A   Clear
10:53 AM 61.0 °F - 18.0 °F 19% 29.61 in 10.0 mi WSW 19.6 mph 31.1 mph N/A   Clear
11:53 AM 66.0 °F - 21.0 °F 18% 29.58 in 10.0 mi WSW 28.8 mph 34.5 mph N/A   Clear
12:53 PM 69.1 °F - 21.0 °F 16% 29.52 in 10.0 mi SW 28.8 mph 35.7 mph N/A   Clear
1:53 PM 66.9 °F - 19.9 °F 17% 29.52 in 10.0 mi WSW 38.0 mph 48.3 mph N/A   Clear
2:53 PM 69.1 °F - 21.9 °F 17% 29.48 in 9.0 mi SW 34.5 mph 48.3 mph N/A   Clear
3:53 PM 66.9 °F - 21.9 °F 18% 29.48 in 10.0 mi WSW 32.2 mph 43.7 mph N/A   Clear
4:53 PM 66.9 °F - 21.9 °F 18% 29.45 in 10.0 mi WSW 29.9 mph 44.9 mph N/A   Mostly Cloudy
5:53 PM 66.9 °F - 21.9 °F 18% 29.45 in 10.0 mi West 29.9 mph 43.7 mph N/A   Overcast
6:53 PM 64.0 °F - 23.0 °F 21% 29.44 in 10.0 mi West 28.8 mph 43.7 mph N/A   Clear
7:53 PM 62.1 °F - 24.1 °F 23% 29.44 in 10.0 mi WSW 33.4 mph 43.7 mph N/A   Clear
8:53 PM 57.9 °F - 26.1 °F 30% 29.47 in 10.0 mi West 19.6 mph 29.9 mph N/A   Clear
9:53 PM 55.0 °F - 27.0 °F 34% 29.49 in 10.0 mi West 15.0 mph - N/A   Clear
10:41 PM 44.6 °F 36.6 °F 33.8 °F 66% 29.67 in 10.0 mi NNE 19.6 mph 26.5 mph N/A   Clear
10:53 PM 42.1 °F 32.8 °F 33.1 °F 70% 29.57 in 10.0 mi NNE 21.9 mph 28.8 mph N/A   Clear
11:53 PM 39.0 °F 30.3 °F 30.9 °F 73% 29.62 in 10.0 mi North 16.1 mph 26.5 mph N/A   Clear